When you browse on this site, cookies collect data to enhance your experience and personalize the content and advertising you see.
Visit our Privacy Policy to learn more. By continuing to use the site, you agree to this use of cookies and data.
  • en Suisse
  • Liste des pays
  • À 7 jours
  • Température de l'eau
  • Carte satellitaire
  • Carte météo
  • Widgets météo
  • user-avatar
    Se connecter

    Météo par heure à Nakourou

    Ce jour, 20 Mars, Mercredi

    Heure Température Précipitation Vent Pression Humidité
    00:00 +16°C° 0 mm 1 m/s 604 mmHg 69%
    01:00 +16°C° 0 mm 1 m/s 604 mmHg 71%
    02:00 +15°C° 0 mm 1 m/s 603 mmHg 70%
    03:00 +15°C° 0 mm 1 m/s 603 mmHg 73%
    04:00 +15°C° 0 mm 1 m/s 603 mmHg 75%
    05:00 +14°C° 0 mm 1 m/s 603 mmHg 78%
    06:00 +18°C° 0 mm 1 m/s 604 mmHg 68%
    07:00 +20°C° 0 mm 1 m/s 605 mmHg 58%
    08:00 +23°C° 0 mm 1 m/s 607 mmHg 48%
    09:00 +25°C° 0 mm 2 m/s 607 mmHg 42%
    10:00 +27°C° 0 mm 2 m/s 608 mmHg 35%
    11:00 +29°C° 0 mm 3 m/s 608 mmHg 28%
    12:00 +29°C° 0 mm 3 m/s 607 mmHg 29%
    13:00 +29°C° 0 mm 4 m/s 606 mmHg 29%
    14:00 +29°C° 0 mm 4 m/s 606 mmHg 30%
    15:00 +27°C° 0.3 mm 4 m/s 605 mmHg 37%
    16:00 +26°C° 0.3 mm 3 m/s 605 mmHg 43%
    17:00 +24°C° 0.3 mm 3 m/s 604 mmHg 49%
    18:00 +23°C° 0.5 mm 2 m/s 604 mmHg 56%
    19:00 +21°C° 0.5 mm 1 m/s 604 mmHg 62%
    20:00 +20°C° 0.5 mm 1 m/s 605 mmHg 69%
    21:00 +19°C° 0.3 mm 1 m/s 605 mmHg 72%
    22:00 +19°C° 0.3 mm 1 m/s 605 mmHg 76%
    23:00 +18°C° 0.3 mm 1 m/s 605 mmHg 79%

    Demain, 21 Mars, Jeudi

    Heure Température Précipitation Vent Pression Humidité
    00:00 +16°C° 0 mm 1 m/s 604 mmHg 81%
    01:00 +16°C° 0 mm 1 m/s 604 mmHg 84%
    02:00 +16°C° 0 mm 1 m/s 603 mmHg 86%
    03:00 +15°C° 0 mm 1 m/s 603 mmHg 87%
    04:00 +15°C° 0 mm 1 m/s 603 mmHg 87%
    05:00 +14°C° 0 mm 1 m/s 603 mmHg 88%
    06:00 +18°C° 0 mm 1 m/s 604 mmHg 73%
    07:00 +20°C° 0 mm 1 m/s 605 mmHg 58%
    08:00 +23°C° 0 mm 1 m/s 607 mmHg 43%
    09:00 +25°C° 0 mm 2 m/s 607 mmHg 37%
    10:00 +27°C° 0 mm 3 m/s 608 mmHg 30%
    11:00 +29°C° 0 mm 3 m/s 608 mmHg 24%
    12:00 +29°C° 0 mm 4 m/s 608 mmHg 23%
    13:00 +30°C° 0 mm 4 m/s 607 mmHg 22%
    14:00 +30°C° 0 mm 4 m/s 607 mmHg 20%
    15:00 +29°C° 0 mm 4 m/s 606 mmHg 23%
    16:00 +28°C° 0 mm 4 m/s 606 mmHg 26%
    17:00 +27°C° 0 mm 3 m/s 605 mmHg 28%
    18:00 +25°C° 0 mm 2 m/s 605 mmHg 35%
    19:00 +21°C° 0 mm 2 m/s 605 mmHg 42%
    20:00 +20°C° 0 mm 1 m/s 605 mmHg 49%
    21:00 +19°C° 0 mm 1 m/s 605 mmHg 55%
    22:00 +19°C° 0 mm 1 m/s 605 mmHg 60%
    23:00 +18°C° 0 mm 1 m/s 605 mmHg 66%

    Après-demain, 22 Mars, Vendredi

    Heure Température Précipitation Vent Pression Humidité
    00:00 +16°C° 0 mm 1 m/s 605 mmHg 71%
    01:00 +16°C° 0 mm 1 m/s 604 mmHg 76%
    02:00 +15°C° 0 mm 1 m/s 603 mmHg 81%
    03:00 +15°C° 0 mm 1 m/s 603 mmHg 83%
    04:00 +15°C° 0 mm 1 m/s 603 mmHg 84%
    05:00 +14°C° 0 mm 1 m/s 603 mmHg 86%
    06:00 +18°C° 0 mm 1 m/s 605 mmHg 71%
    07:00 +20°C° 0 mm 1 m/s 606 mmHg 57%
    08:00 +23°C° 0 mm 1 m/s 607 mmHg 43%
    09:00 +25°C° 0 mm 1 m/s 608 mmHg 35%
    10:00 +27°C° 0 mm 2 m/s 608 mmHg 28%
    11:00 +30°C° 0 mm 3 m/s 609 mmHg 21%
    12:00 +30°C° 0 mm 3 m/s 608 mmHg 20%
    13:00 +30°C° 0 mm 3 m/s 607 mmHg 20%
    14:00 +32°C° 0 mm 4 m/s 607 mmHg 19%
    15:00 +29°C° 0 mm 4 m/s 606 mmHg 22%
    16:00 +28°C° 0 mm 3 m/s 606 mmHg 25%
    17:00 +27°C° 0 mm 3 m/s 605 mmHg 29%
    18:00 +25°C° 0 mm 2 m/s 605 mmHg 36%
    19:00 +23°C° 0 mm 2 m/s 606 mmHg 44%
    20:00 +20°C° 0 mm 1 m/s 606 mmHg 52%
    21:00 +20°C° 0 mm 1 m/s 606 mmHg 57%
    22:00 +17°C° 0 mm 0 m/s 606 mmHg 63%
    23:00 +16°C° 0 mm 0 m/s 606 mmHg 69%

    23 Mars, Samedi

    Heure Température Précipitation Vent Pression Humidité
    00:00 +16°C° 0 mm 0 m/s 605 mmHg 72%
    01:00 +16°C° 0 mm 0 m/s 604 mmHg 75%
    02:00 +16°C° 0 mm 1 m/s 604 mmHg 78%
    03:00 +16°C° 0 mm 1 m/s 604 mmHg 80%
    04:00 +15°C° 0 mm 1 m/s 604 mmHg 81%
    05:00 +15°C° 0 mm 1 m/s 604 mmHg 82%
    06:00 +18°C° 0 mm 1 m/s 605 mmHg 72%
    07:00 +20°C° 0 mm 1 m/s 606 mmHg 62%
    08:00 +22°C° 0 mm 1 m/s 607 mmHg 52%
    09:00 +25°C° 0 mm 1 m/s 608 mmHg 43%
    10:00 +28°C° 0 mm 2 m/s 608 mmHg 35%
    11:00 +30°C° 0 mm 2 m/s 609 mmHg 26%
    12:00 +30°C° 0 mm 2 m/s 608 mmHg 25%
    13:00 +30°C° 0 mm 3 m/s 607 mmHg 24%
    14:00 +30°C° 0 mm 3 m/s 606 mmHg 23%
    15:00 +29°C° 0 mm 3 m/s 606 mmHg 25%
    16:00 +28°C° 0 mm 3 m/s 606 mmHg 27%
    17:00 +27°C° 0 mm 3 m/s 605 mmHg 30%
    18:00 +25°C° 0 mm 2 m/s 605 mmHg 37%
    19:00 +23°C° 0 mm 2 m/s 605 mmHg 45%
    20:00 +21°C° 0 mm 1 m/s 605 mmHg 52%
    21:00 +20°C° 0 mm 1 m/s 605 mmHg 59%
    22:00 +19°C° 0 mm 1 m/s 605 mmHg 65%
    23:00 +16°C° 0 mm 0 m/s 605 mmHg 72%

    24 Mars, Dimanche

    Heure Température Précipitation Vent Pression Humidité
    00:00 +15°C° 0 mm 0 m/s 604 mmHg 75%
    01:00 +15°C° 0 mm 0 m/s 603 mmHg 79%
    02:00 +15°C° 0 mm 1 m/s 603 mmHg 83%
    03:00 +15°C° 0 mm 1 m/s 603 mmHg 84%
    04:00 +15°C° 0 mm 1 m/s 603 mmHg 85%
    05:00 +15°C° 0 mm 1 m/s 603 mmHg 86%
    06:00 +18°C° 0 mm 1 m/s 604 mmHg 75%
    07:00 +21°C° 0 mm 1 m/s 606 mmHg 63%
    08:00 +23°C° 0 mm 1 m/s 607 mmHg 51%
    09:00 +25°C° 0 mm 2 m/s 607 mmHg 42%
    10:00 +27°C° 0 mm 2 m/s 607 mmHg 34%
    11:00 +29°C° 0 mm 3 m/s 607 mmHg 25%
    12:00 +30°C° 0 mm 3 m/s 607 mmHg 22%
    13:00 +32°C° 0 mm 4 m/s 606 mmHg 19%
    14:00 +32°C° 0 mm 4 m/s 606 mmHg 16%
    15:00 +30°C° 0 mm 4 m/s 606 mmHg 18%
    16:00 +29°C° 0 mm 4 m/s 606 mmHg 20%
    17:00 +28°C° 0 mm 3 m/s 605 mmHg 22%
    18:00 +25°C° 0 mm 3 m/s 605 mmHg 32%
    19:00 +23°C° 0 mm 2 m/s 605 mmHg 41%
    20:00 +20°C° 0 mm 1 m/s 604 mmHg 51%
    21:00 +19°C° 0 mm 1 m/s 604 mmHg 56%
    22:00 +18°C° 0 mm 1 m/s 604 mmHg 62%
    23:00 +16°C° 0 mm 0 m/s 604 mmHg 68%

    25 Mars, Lundi

    Heure Température Précipitation Vent Pression Humidité
    00:00 +16°C° 0 mm 1 m/s 603 mmHg 72%
    01:00 +16°C° 0 mm 1 m/s 602 mmHg 76%
    02:00 +15°C° 0 mm 1 m/s 602 mmHg 81%
    03:00 +15°C° 0 mm 1 m/s 602 mmHg 82%
    04:00 +14°C° 0 mm 1 m/s 602 mmHg 83%
    05:00 +14°C° 0 mm 1 m/s 603 mmHg 84%
    06:00 +18°C° 0 mm 1 m/s 604 mmHg 70%
    07:00 +21°C° 0 mm 1 m/s 605 mmHg 57%
    08:00 +23°C° 0 mm 1 m/s 607 mmHg 44%
    09:00 +25°C° 0 mm 2 m/s 607 mmHg 36%
    10:00 +27°C° 0 mm 3 m/s 607 mmHg 28%
    11:00 +29°C° 0 mm 4 m/s 607 mmHg 20%
    12:00 +30°C° 0 mm 4 m/s 607 mmHg 19%
    13:00 +32°C° 0 mm 4 m/s 606 mmHg 18%
    14:00 +32°C° 0 mm 4 m/s 606 mmHg 17%
    15:00 +30°C° 0 mm 4 m/s 606 mmHg 19%
    16:00 +29°C° 0 mm 4 m/s 606 mmHg 20%
    17:00 +28°C° 0 mm 4 m/s 605 mmHg 22%
    18:00 +25°C° 0 mm 3 m/s 605 mmHg 29%
    19:00 +23°C° 0 mm 2 m/s 605 mmHg 36%
    20:00 +19°C° 0 mm 2 m/s 604 mmHg 43%
    21:00 +19°C° 0 mm 1 m/s 604 mmHg 49%
    22:00 +18°C° 0 mm 1 m/s 604 mmHg 55%
    23:00 +16°C° 0 mm 1 m/s 604 mmHg 60%
    Voir plus